Regional Weather Roundup
Issued by NWS Kansas City/Pleasant Hill, MO

Home | Current Version | Previous Version | Text Only | Print | Product List | Glossary On
Versions: 1 2 3 4 5 6 7 8 9 10 11 12 13 14 15 16 17 18 19 20 21 22 23 24 25 26 27 28 29 30 31 32 33 34 35 36 37 38 39 40 41 42 43 44 45 46 47 48 49 50
000
ASUS43 KEAX 221904
RWREAX

WEATHER ROUNDUP FOR EASTERN KANSAS AND NORTHWEST MISSOURI
NATIONAL WEATHER SERVICE KANSAS CITY/PLEASANT HILL MO
200 PM CDT WED OCT 22 2014

KSZ040-057-103>105-MOZ028-029-037-043-222000-
...KANSAS CITY METROPOLITAN AREA...

CITY           SKY/WX    TMP DP  RH WIND       PRES   REMARKS
K.C. INTL      MOSUNNY   70  55  59 SE15      30.13F
K.C. DOWNTOWN  SUNNY     71  52  50 SE7       30.13F
LEES SUMMIT    SUNNY     69  52  54 SE10      30.15F
OLATHE - IXD   SUNNY     71  55  56 SE9       30.14F
OLATHE - OJC   SUNNY     69  54  58 SE10      30.13F
LAWRENCE       SUNNY     73  55  53 S8        30.12F

$$

MOZ001>008-011>017-020>025-030>033-038>040-044>046-053-054-222000-
...NORTHERN AND CENTRAL MISSOURI...

CITY           SKY/WX    TMP DP  RH WIND       PRES   REMARKS
ST. JOSEPH     SUNNY     71  53  52 SE10      30.12F
MOSBY          PTCLDY    66  48  52 SE12      30.15F
WHITEMAN AFB   SUNNY     69  49  49 SE9       30.17F
CLINTON        SUNNY     70  52  52 S8        30.18F
SEDALIA        SUNNY     70  49  47 SE9       30.20F
WARSAW         NOT AVBL
MARSHALL       SUNNY     70  50  49 SE12      30.22F
CHILLICOTHE      N/A     66  48  52 VRB6G16   30.19F
MOBERLY        SUNNY     66  41  39 SE7       30.24F
KIRKSVILLE     SUNNY     62  47  57 SE13      30.23F

$$

MOZ041-047>049-056>058-063>065-088>090-097-222000-
...EASTERN AND SOUTHERN MISSOURI...

CITY           SKY/WX    TMP DP  RH WIND       PRES   REMARKS
ST. LOUIS INTL SUNNY     61  43  51 SE5       30.28F
SPIRIT OF STL  SUNNY     61  43  51 E6        30.26F
COLUMBIA       SUNNY     64  46  52 VRB6      30.23F
JEFFERSON CITY SUNNY     65  42  43 E6        30.22F
MEXICO         SUNNY     66  46  48 E5        30.25F
ROLLA          SUNNY     62  43  49 E6        30.22F
LEBANON        SUNNY     68  45  42 E3        30.22S
OSAGE BEACH    SUNNY     66  45  45 E6        30.22F
SPRINGFIELD    SUNNY     68  48  48 SE6       30.19F
BRANSON        SUNNY     68  48  49 E6        30.22F
NEVADA         PTSUNNY   70  54  56 SE8       30.18F
JOPLIN         PTSUNNY   71  57  61 S3        30.15F
WEST PLAINS    SUNNY     63  45  51 VRB6      30.23F

$$

IAZ060-094-KSZ022-034>040-054-083-096-NEZ052-066-093-222000-
...KANSAS...SOUTHEAST NEBRASKA AND IOWA...

CITY           SKY/WX    TMP DP  RH WIND       PRES   REMARKS
TOPEKA         SUNNY     77  58  51 S9        30.10F
MANHATTAN      MOSUNNY   80  54  40 S17G29    30.04F
EMPORIA        MOSUNNY   77  56  48 S17G23    30.09F
CHANUTE        SUNNY     76  62  62 S13       30.12F
WICHITA        PTSUNNY   78  55  44 S21G31    30.07F
OMAHA          MOSUNNY   73  51  46 S22       30.04F
LINCOLN        MOSUNNY   77  53  43 S20       30.00F
FALLS CITY     LGT RAIN  74  55  51 S13       30.07F
LAMONI         MOSUNNY   63  47  55 SE13G22   30.16F
DES MOINES     MOSUNNY   65  46  50 S18       30.16F

$$




USA.gov is the U.S. government's official web portal to all federal, state and local government web resources and services.